Time,TemperatureF,DewpointF,PressureIn,WindDirection,WindDirectionDegrees,WindSpeedMPH,WindSpeedGustMPH,Humidity,HourlyPrecipIn,Conditions,Clouds,dailyrainin,SoftwareType,DateUTC
2013-03-25 00:02:00,71.0,68.0,29.69,SSW,209,1.0,5.0,90,0.00,,,0.00,,2013-03-25 04:02:00,
2013-03-25 00:13:00,71.0,68.0,29.69,SSW,209,1.0,5.0,90,0.00,,,0.00,,2013-03-25 04:13:00,
2013-03-25 00:22:00,70.0,67.0,29.69,West,260,1.0,2.0,91,0.00,,,0.00,,2013-03-25 04:22:00,
2013-03-25 00:33:00,70.0,67.0,29.69,West,260,1.0,2.0,91,0.00,,,0.00,,2013-03-25 04:33:00,
2013-03-25 00:43:00,70.0,67.0,29.69,West,260,1.0,2.0,91,0.00,,,0.00,,2013-03-25 04:43:00,
2013-03-25 00:52:00,69.0,67.0,29.69,SW,220,2.0,8.0,92,0.00,,,0.00,,2013-03-25 04:52:00,
2013-03-25 01:03:00,69.0,67.0,29.69,SW,220,2.0,8.0,92,0.00,,,0.00,,2013-03-25 05:03:00,
2013-03-25 01:12:00,69.0,67.0,29.69,SW,220,2.0,8.0,92,0.00,,,0.00,,2013-03-25 05:12:00,
2013-03-25 01:22:00,68.0,66.0,29.69,WSW,241,1.0,6.0,92,0.00,,,0.00,,2013-03-25 05:22:00,
2013-03-25 01:32:00,68.0,66.0,29.69,WSW,241,1.0,6.0,92,0.00,,,0.00,,2013-03-25 05:32:00,
2013-03-25 01:42:00,68.0,66.0,29.69,WSW,241,1.0,6.0,92,0.00,,,0.00,,2013-03-25 05:42:00,
2013-03-25 01:52:00,67.0,65.0,29.69,WSW,257,1.0,5.0,92,0.00,,,0.00,,2013-03-25 05:52:00,
2013-03-25 02:02:00,67.0,65.0,29.69,WSW,257,1.0,5.0,92,0.00,,,0.00,,2013-03-25 06:02:00,
2013-03-25 02:12:00,67.0,65.0,29.69,WSW,257,1.0,5.0,92,0.00,,,0.00,,2013-03-25 06:12:00,
2013-03-25 02:22:00,67.0,65.0,29.70,WSW,240,1.0,6.0,92,0.00,,,0.00,,2013-03-25 06:22:00,
2013-03-25 02:32:00,67.0,65.0,29.70,WSW,240,1.0,6.0,92,0.00,,,0.00,,2013-03-25 06:32:00,
2013-03-25 02:42:00,67.0,65.0,29.70,WSW,240,1.0,6.0,92,0.00,,,0.00,,2013-03-25 06:42:00,
2013-03-25 02:53:00,67.0,65.0,29.70,WSW,246,3.0,8.0,92,0.00,,,0.00,,2013-03-25 06:53:00,
2013-03-25 03:02:00,67.0,65.0,29.70,WSW,246,3.0,8.0,92,0.00,,,0.00,,2013-03-25 07:02:00,
2013-03-25 03:13:00,67.0,65.0,29.70,WSW,246,3.0,8.0,92,0.00,,,0.00,,2013-03-25 07:13:00,
2013-03-25 03:22:00,66.0,64.0,29.70,SW,215,3.0,12.0,92,0.00,,,0.00,,2013-03-25 07:22:00,
2013-03-25 03:32:00,66.0,64.0,29.70,SW,215,3.0,12.0,92,0.00,,,0.00,,2013-03-25 07:32:00,
2013-03-25 03:42:00,66.0,64.0,29.70,SW,215,3.0,12.0,92,0.00,,,0.00,,2013-03-25 07:42:00,
2013-03-25 03:53:00,66.0,64.0,29.70,SW,227,3.0,12.0,92,0.00,,,0.00,,2013-03-25 07:53:00,
2013-03-25 04:03:00,66.0,64.0,29.70,SW,227,3.0,12.0,92,0.00,,,0.00,,2013-03-25 08:03:00,
2013-03-25 04:12:00,66.0,64.0,29.70,SW,227,3.0,12.0,92,0.00,,,0.00,,2013-03-25 08:12:00,
2013-03-25 04:23:00,65.0,62.0,29.70,SW,217,3.0,16.0,91,0.00,,,0.00,,2013-03-25 08:23:00,
2013-03-25 04:32:00,65.0,62.0,29.70,SW,217,3.0,16.0,91,0.00,,,0.00,,2013-03-25 08:32:00,
2013-03-25 04:43:00,65.0,62.0,29.70,SW,217,3.0,16.0,91,0.00,,,0.00,,2013-03-25 08:43:00,
2013-03-25 04:52:00,65.0,62.0,29.71,West,268,4.0,12.0,90,0.00,,,0.00,,2013-03-25 08:52:00,
2013-03-25 05:02:00,65.0,62.0,29.71,West,268,4.0,12.0,90,0.00,,,0.00,,2013-03-25 09:02:00,
2013-03-25 05:13:00,65.0,62.0,29.71,West,268,4.0,12.0,90,0.00,,,0.00,,2013-03-25 09:13:00,
2013-03-25 05:22:00,65.0,61.0,29.72,West,277,5.0,16.0,87,0.00,,,0.00,,2013-03-25 09:22:00,
2013-03-25 05:31:00,65.0,61.0,29.72,WNW,292,4.0,14.0,86,0.00,,,0.00,,2013-03-25 09:31:00,
2013-03-25 05:33:00,65.0,61.0,29.72,West,277,5.0,16.0,87,0.00,,,0.00,,2013-03-25 09:33:00,
2013-03-25 05:43:00,65.0,61.0,29.72,West,277,5.0,16.0,87,0.00,,,0.00,,2013-03-25 09:43:00,
2013-03-25 05:53:00,65.0,61.0,29.72,WNW,292,4.0,14.0,86,0.00,,,0.00,,2013-03-25 09:53:00,
2013-03-25 06:03:00,65.0,61.0,29.72,WNW,292,4.0,14.0,86,0.00,,,0.00,,2013-03-25 10:03:00,
2013-03-25 06:12:00,65.0,61.0,29.72,WNW,292,4.0,14.0,86,0.00,,,0.00,,2013-03-25 10:12:00,
2013-03-25 06:22:00,65.0,61.0,29.72,WNW,292,4.0,14.0,86,0.00,,,0.00,,2013-03-25 10:22:00,
2013-03-25 08:54:00,62.0,54.0,29.81,NW,325,6.0,11.0,76,0.00,,,0.00,,2013-03-25 12:54:00,
2013-03-25 09:03:00,62.0,54.0,29.81,NW,325,6.0,11.0,76,0.00,,,0.00,,2013-03-25 13:03:00,
2013-03-25 09:13:00,62.0,54.0,29.81,NW,325,6.0,11.0,76,0.00,,,0.00,,2013-03-25 13:13:00,
2013-03-25 09:23:00,60.0,49.0,29.83,North,353,2.0,12.0,68,0.00,,,0.00,,2013-03-25 13:23:00,
2013-03-25 09:32:00,60.0,49.0,29.83,North,353,2.0,12.0,68,0.00,,,0.00,,2013-03-25 13:32:00,
2013-03-25 09:43:00,60.0,49.0,29.83,North,353,2.0,12.0,68,0.00,,,0.00,,2013-03-25 13:43:00,
2013-03-25 09:53:00,60.0,47.0,29.85,NW,316,5.0,12.0,61,0.00,,,0.00,,2013-03-25 13:53:00,
2013-03-25 10:03:00,60.0,47.0,29.85,NW,316,5.0,12.0,61,0.00,,,0.00,,2013-03-25 14:03:00,
2013-03-25 10:13:00,60.0,47.0,29.85,NW,316,5.0,12.0,61,0.00,,,0.00,,2013-03-25 14:13:00,
2013-03-25 10:23:00,60.0,43.0,29.86,NW,305,6.0,14.0,54,0.00,,,0.00,,2013-03-25 14:23:00,
2013-03-25 10:32:00,60.0,43.0,29.86,NW,305,6.0,14.0,54,0.00,,,0.00,,2013-03-25 14:32:00,
2013-03-25 10:43:00,60.0,43.0,29.86,NW,305,6.0,14.0,54,0.00,,,0.00,,2013-03-25 14:43:00,
2013-03-25 10:53:00,61.0,36.0,29.87,NNW,337,5.0,16.0,39,0.00,,,0.00,,2013-03-25 14:53:00,
2013-03-25 11:03:00,61.0,36.0,29.87,NNW,337,5.0,16.0,39,0.00,,,0.00,,2013-03-25 15:03:00,
2013-03-25 11:13:00,61.0,36.0,29.87,NNW,337,5.0,16.0,39,0.00,,,0.00,,2013-03-25 15:13:00,
2013-03-25 11:23:00,62.0,36.0,29.88,NNE,18,7.0,15.0,38,0.00,,,0.00,,2013-03-25 15:23:00,
2013-03-25 11:33:00,62.0,36.0,29.88,NNE,18,7.0,15.0,38,0.00,,,0.00,,2013-03-25 15:33:00,
2013-03-25 11:43:00,62.0,36.0,29.88,NNE,18,7.0,15.0,38,0.00,,,0.00,,2013-03-25 15:43:00,
2013-03-25 11:53:00,63.0,40.0,29.89,WNW,301,4.0,12.0,42,0.00,,,0.00,,2013-03-25 15:53:00,
2013-03-25 12:01:00,63.0,37.0,29.89,West,280,6.0,14.0,38,0.00,,,0.00,,2013-03-25 16:01:00,
2013-03-25 12:03:00,63.0,40.0,29.89,WNW,301,4.0,12.0,42,0.00,,,0.00,,2013-03-25 16:03:00,
2013-03-25 12:12:00,63.0,40.0,29.89,WNW,301,4.0,12.0,42,0.00,,,0.00,,2013-03-25 16:12:00,
2013-03-25 12:23:00,63.0,40.0,29.89,WNW,301,4.0,12.0,42,0.00,,,0.00,,2013-03-25 16:23:00,
2013-03-25 12:33:00,63.0,37.0,29.89,West,280,6.0,14.0,38,0.00,,,0.00,,2013-03-25 16:33:00,
2013-03-25 12:44:00,63.0,37.0,29.89,West,280,6.0,14.0,38,0.00,,,0.00,,2013-03-25 16:44:00,
2013-03-25 12:53:00,63.0,37.0,29.89,West,280,6.0,14.0,38,0.00,,,0.00,,2013-03-25 16:53:00,
2013-03-25 15:53:00,70.0,34.0,29.84,NW,304,9.0,18.0,26,0.00,,,0.00,,2013-03-25 19:53:00,
2013-03-25 16:02:00,70.0,34.0,29.84,NW,304,9.0,18.0,26,0.00,,,0.00,,2013-03-25 20:02:00,
2013-03-25 16:12:00,70.0,34.0,29.84,NW,304,9.0,18.0,26,0.00,,,0.00,,2013-03-25 20:12:00,
2013-03-25 16:22:00,70.0,32.0,29.84,NW,304,6.0,14.0,24,0.00,,,0.00,,2013-03-25 20:22:00,
2013-03-25 16:32:00,70.0,32.0,29.84,NW,304,6.0,14.0,24,0.00,,,0.00,,2013-03-25 20:32:00,
2013-03-25 16:42:00,70.0,32.0,29.84,NW,304,6.0,14.0,24,0.00,,,0.00,,2013-03-25 20:42:00,
2013-03-25 16:52:00,70.0,30.0,29.83,North,349,9.0,14.0,23,0.00,,,0.00,,2013-03-25 20:52:00,
2013-03-25 17:03:00,70.0,30.0,29.83,North,349,9.0,14.0,23,0.00,,,0.00,,2013-03-25 21:03:00,
2013-03-25 17:13:00,70.0,30.0,29.83,North,349,9.0,14.0,23,0.00,,,0.00,,2013-03-25 21:13:00,
2013-03-25 17:22:00,71.0,34.0,29.83,NW,323,6.0,13.0,26,0.00,,,0.00,,2013-03-25 21:22:00,
2013-03-25 17:33:00,71.0,34.0,29.83,NW,323,6.0,13.0,26,0.00,,,0.00,,2013-03-25 21:33:00,
2013-03-25 17:43:00,71.0,34.0,29.83,NW,323,6.0,13.0,26,0.00,,,0.00,,2013-03-25 21:43:00,
2013-03-25 17:52:00,71.0,34.0,29.84,North,360,5.0,16.0,26,0.00,,,0.00,,2013-03-25 21:52:00,
2013-03-25 18:03:00,71.0,34.0,29.84,North,360,5.0,16.0,26,0.00,,,0.00,,2013-03-25 22:03:00,
2013-03-25 18:13:00,71.0,34.0,29.84,North,360,5.0,16.0,26,0.00,,,0.00,,2013-03-25 22:13:00,
2013-03-25 18:23:00,70.0,33.0,29.84,NNW,336,4.0,11.0,25,0.00,,,0.00,,2013-03-25 22:23:00,
2013-03-25 18:33:00,70.0,33.0,29.84,NNW,336,4.0,11.0,25,0.00,,,0.00,,2013-03-25 22:33:00,
2013-03-25 18:43:00,70.0,33.0,29.84,NNW,336,4.0,11.0,25,0.00,,,0.00,,2013-03-25 22:43:00,
2013-03-25 18:52:00,70.0,35.0,29.84,WNW,291,4.0,11.0,28,0.00,,,0.00,,2013-03-25 22:52:00,
2013-03-25 19:03:00,70.0,35.0,29.84,WNW,291,4.0,11.0,28,0.00,,,0.00,,2013-03-25 23:03:00,
2013-03-25 19:12:00,70.0,35.0,29.84,WNW,291,4.0,11.0,28,0.00,,,0.00,,2013-03-25 23:12:00,
2013-03-25 19:23:00,69.0,38.0,29.86,WNW,287,2.0,10.0,32,0.00,,,0.00,,2013-03-25 23:23:00,
2013-03-25 19:32:00,69.0,38.0,29.86,WNW,287,2.0,10.0,32,0.00,,,0.00,,2013-03-25 23:32:00,
2013-03-25 19:43:00,69.0,38.0,29.86,WNW,287,2.0,10.0,32,0.00,,,0.00,,2013-03-25 23:43:00,
2013-03-25 19:53:00,67.0,38.0,29.88,WNW,287,4.0,11.0,35,0.00,,,0.00,,2013-03-25 23:53:00,
2013-03-25 20:02:00,67.0,38.0,29.88,WNW,287,4.0,11.0,35,0.00,,,0.00,,2013-03-26 00:02:00,
2013-03-25 20:12:00,67.0,38.0,29.88,WNW,287,4.0,11.0,35,0.00,,,0.00,,2013-03-26 00:12:00,
2013-03-25 20:22:00,64.0,40.0,29.89,West,281,3.0,9.0,41,0.00,,,0.00,,2013-03-26 00:22:00,
2013-03-25 20:32:00,64.0,40.0,29.89,West,281,3.0,9.0,41,0.00,,,0.00,,2013-03-26 00:32:00,
2013-03-25 20:43:00,64.0,40.0,29.89,West,281,3.0,9.0,41,0.00,,,0.00,,2013-03-26 00:43:00,
2013-03-25 20:52:00,63.0,41.0,29.91,West,275,3.0,12.0,44,0.00,,,0.00,,2013-03-26 00:52:00,
2013-03-25 21:02:00,63.0,41.0,29.91,West,275,3.0,12.0,44,0.00,,,0.00,,2013-03-26 01:02:00,
2013-03-25 21:12:00,63.0,41.0,29.91,West,275,3.0,12.0,44,0.00,,,0.00,,2013-03-26 01:12:00,
2013-03-25 21:23:00,61.0,41.0,29.93,NW,304,6.0,14.0,47,0.00,,,0.00,,2013-03-26 01:23:00,
2013-03-25 21:32:00,61.0,41.0,29.93,NW,304,6.0,14.0,47,0.00,,,0.00,,2013-03-26 01:32:00,
2013-03-25 21:42:00,61.0,41.0,29.93,NW,304,6.0,14.0,47,0.00,,,0.00,,2013-03-26 01:42:00,
2013-03-25 21:53:00,59.0,40.0,29.94,NNW,337,6.0,13.0,50,0.00,,,0.00,,2013-03-26 01:53:00,
2013-03-25 22:02:00,59.0,40.0,29.94,NNW,337,6.0,13.0,50,0.00,,,0.00,,2013-03-26 02:02:00,
2013-03-25 22:12:00,59.0,40.0,29.94,NNW,337,6.0,13.0,50,0.00,,,0.00,,2013-03-26 02:12:00,
2013-03-25 22:23:00,58.0,40.0,29.96,WSW,256,2.0,14.0,52,0.00,,,0.00,,2013-03-26 02:23:00,
2013-03-25 22:32:00,58.0,40.0,29.96,WSW,256,2.0,14.0,52,0.00,,,0.00,,2013-03-26 02:32:00,
2013-03-25 22:43:00,58.0,40.0,29.96,WSW,256,2.0,14.0,52,0.00,,,0.00,,2013-03-26 02:43:00,
2013-03-25 22:52:00,57.0,40.0,29.99,NW,305,6.0,17.0,53,0.00,,,0.00,,2013-03-26 02:52:00,
2013-03-25 23:02:00,57.0,40.0,29.99,NW,305,6.0,17.0,53,0.00,,,0.00,,2013-03-26 03:02:00,
2013-03-25 23:12:00,57.0,40.0,29.99,NW,305,6.0,17.0,53,0.00,,,0.00,,2013-03-26 03:12:00,
2013-03-25 23:22:00,56.0,39.0,30.00,NW,308,5.0,13.0,53,0.00,,,0.00,,2013-03-26 03:22:00,
2013-03-25 23:33:00,56.0,39.0,30.00,NW,308,5.0,13.0,53,0.00,,,0.00,,2013-03-26 03:33:00,
2013-03-25 23:43:00,56.0,39.0,30.00,NW,308,5.0,13.0,53,0.00,,,0.00,,2013-03-26 03:43:00,
2013-03-25 23:53:00,56.0,40.0,30.01,NNW,339,3.0,11.0,54,0.00,,,0.00,,2013-03-26 03:53:00,